DECAYED

FENGYUN 1C DEB, 31920 (Decayed)

Orbit data source: Space-Track

FENGYUN 1C DEB, 31920 was space debris in SSO originally from a launch on Mon, 10 May 1999 UTC launched from the Taiyaun Space Center, China (TSC). Fengyun 1C debris stems from the Chinese weather satellite Fengyun-1C, which was intentionally destroyed by a Chinese anti-satellite missile in 2007. This event dramatically increased the amount of space debris, with thousands of trackable fragments posing hazards to satellites and human spaceflight. The Fengyun 1C debris cloud has become a focal point in discussions about space sustainability and the need for international regulations to prevent the creation of new debris.

Not visible in the next 10 days
Identifier
31920, 1999-025CLX
Orbit
Decayed
Country
Flag of CNCN / PRC
Related business
Manufacturer
Unknown
Mission
Decayed spacecraft
Bus & Motor
Unknown
Mass
Unknown
Launch date (UTC)
1999-05-10 (27 years ago)
Launch vehicle
Unknown
Launch site
Taiyaun Space Center, China (TSC)
Object type
Payload
Rocket body
Debris
Shape & HBR
Unknown shape, 0.1 m
Radar Cross Section
Small (<0.1 m²)

Expand to show TLE details & history
Last TLE update: 1 year ago

TLE from 1 year ago
0 FENGYUN 1C DEB
1 31920U 99025CLX 25103.41553288  .01400972  95162-3  40660-2 0  9994
2 31920  98.7589  88.4677 0028376 126.2024 234.1876 15.92395209965114
Epoch: 2025-04-13T09:58Z
TLE epoch observation values (Epoch: 2025-04-13T09:58:22.040Z)
Latitude
-0.00005°
Longitude
97.03071°
Altitude
309.845 km
Speed
7.716 km/s
True Right ascension
05h 53m 52s
True Declination
0° 00' 00"
Sunlit
Object was in daylight at epoch
Visualization orbit readout
Latitude
Unknown
Longitude
Unknown
Altitude
Unknown
Speed
Unknown
Apparent Right ascension
Unknown
Apparent Declination
Unknown
Sunlit
N/A
Visualization observer readout
Local Sidereal Time
14:52:58
Azimuth
Unknown
Elevation
Unknown
Doppler factor
Unknown
Orbital elements
Apogee altitude
311.446 km
Perigee altitude
273.589 km
Semi-major axis
6,670.654 km
Eccentricity
0.00284
Inclination
98.7589°
RAAN
88.4677°
Arg. of periapsis
126.2024°
True anomaly
233.92446°
Mean anomaly
234.1876°
Eccentric anomaly
234.05597°
Mean motion
3.98374 °/min
Orbital period
90.37 mins
BSTAR
0.004066
Loading maneuver chart data...
Computing Atmospheric mass density...

Documentation

Showing up to 5 results
|